Location: Zagreb
(45.8000°N, 16.0000°E)
Time: 12:02:48
(UTC+01:00)

Vanguard 1 Rocket - Pass Details

Date: 07 October 2020
Orbit: 656 x 4221 km, 34.3° (Epoch: 28 October)

Event Time Altitude Azimuth Distance (km) Brightness Sun altitude
Rises 19:37:47 0° 263° (W) 4,895 12.9 -13.6°
Reaches altitude 10° 19:40:30 10° 258° (WSW) 4,254 12.0 -14.1°
Maximum altitude 19:52:27 52° 187° (S) 3,334 10.2 -16.2°
Enters shadow 20:09:34 17° 123° (ESE) 6,347 11.1 -19.1°
Drops below altitude 10° 20:13:45 10° 120° (ESE) 7,184 - -19.8°
Sets 20:20:09 0° 116° (ESE) 8,407 - -20.9°
